Wind_Speed
1 1 3 3 3 2 7 8 8 7 5 5 4 5 9 9 2 3 4 15 14 16 16 14 13 13 12 12 12 10 8 8 9 10 9 6 7 8 8 8 8 8 10 9 10 9 8 8 8
2 0 3 3 5 8 11 9 8 6 5 5 5 6 4 6 4 4 3 17 15 12 17 15 13 12 11 11 10 6 5 4 8 8 8 9 8 9 8 10 9 9 9 9 8 8 7 6 6
4 2 2 6 3 4 13 8 7 7 7 5 1 3 4 2 5 1 2 14 18 14 17 15 13 13 10 8 8 8 4 2 8 11 10 10 9 10 10 9 9 8 7 8 7 7 6 7 5
1 3 1 7 2 7 13 9 5 5 7 5 7 2 1 4 3 2 9 12 17 16 18 16 12 11 9 10 11 12 10 7 11 15 9 12 12 10 9 8 8 8 7 7 7 7 5 4 4
4 5 13 10 6 10 11 8 6 4 5 4 7 5 3 3 3 9 12 12 15 13 13 11 11 10 8 6 5 7 6 5 11 15 17 13 11 9 8 8 8 7 6 7 7 6 5 6 7
5 7 11 9 6 14 10 7 5 4 5 7 9 6 5 5 8 15 16 15 18 11 11 11 10 8 6 5 3 6 7 8 14 18 14 11 11 9 8 9 8 6 7 7 7 7 7 7 8
11 13 15 10 3 14 10 6 7 5 5 6 8 5 7 4 7 10 15 17 13 15 11 12 9 8 7 3 6 7 5 11 18 14 13 12 11 9 9 9 7 7 8 8 8 8 8 7 7
7 8 8 11 17 12 9 8 7 4 6 8 7 2 9 2 3 9 14 14 13 11 12 11 10 9 8 6 8 11 16 15 17 14 13 12 11 10 9 9 9 9 9 9 9 9 9 9 5
7 6 4 6 16 13 9 7 6 8 7 7 9 5 12 7 4 3 11 14 18 14 14 12 8 12 9 7 10 12 18 15 13 13 13 13 11 10 9 9 9 8 9 10 11 12 11 8 12
6 10 4 9 10 10 14 6 6 7 5 9 10 4 6 5 8 6 7 14 17 18 13 14 10 11 8 11 14 9 13 13 12 12 11 11 11 9 9 9 10 11 11 12 11 6 9 16 22
8 5 5 9 11 15 10 8 7 6 4 8 8 7 8 6 6 9 7 10 14 18 19 13 11 13 10 15 13 17 15 9 11 10 10 12 11 9 10 9 11 13 11 9 8 7 12 23 25
3 1 4 7 20 13 11 9 7 7 9 9 9 10 8 6 6 4 5 12 10 14 16 17 13 12 13 14 18 17 13 13 10 11 10 10 10 8 12 7 9 13 3 5 6 5 12 17 18
3 4 5 13 16 13 7 14 7 8 11 11 10 9 8 6 7 7 5 13 12 14 18 18 16 16 15 14 18 18 11 15 11 10 10 10 9 8 9 9 9 11 9 2 7 7 14 15 16
2 5 4 5 18 10 13 15 7 8 10 9 9 8 7 5 6 6 8 13 13 13 18 19 16 19 16 17 15 15 11 14 8 9 9 9 9 8 9 8 8 5 7 6 4 8 12 13 14
7 9 10 2 18 14 5 5 7 8 9 9 8 8 7 6 5 4 7 10 13 14 15 18 19 20 19 18 18 16 19 9 6 8 10 9 9 10 9 7 5 3 4 5 4 5 10 13 11
8 4 5 6 11 9 13 2 8 9 10 9 9 8 7 6 4 4 7 9 12 13 15 18 20 22 21 20 17 15 12 11 9 8 10 9 8 8 7 7 4 2 3 3 4 4 6 8 9
8 6 7 7 7 6 10 6 11 15 13 12 10 9 6 5 5 6 6 10 12 13 17 19 20 22 21 18 16 13 13 10 7 8 9 9 8 7 7 5 4 2 2 3 6 2 4 6 6
6 4 8 7 8 10 10 7 7 14 14 14 13 12 10 7 7 7 7 8 9 14 14 16 21 23 20 17 15 14 14 10 8 7 8 8 8 7 6 6 4 4 3 3 4 2 3 5 6
2 2 8 5 4 7 7 10 10 12 16 15 15 16 12 12 10 9 11 8 12 12 11 17 18 20 18 17 17 13 8 9 7 8 7 8 7 8 9 7 10 6 7 5 5 3 3 2 4
4 3 4 4 3 5 5 8 11 11 16 15 14 16 15 11 11 10 12 9 9 11 15 17 20 17 14 12 14 12 13 9 8 8 6 6 6 8 8 7 11 9 7 5 4 3 3 3 3
5 4 3 2 6 9 7 8 12 13 12 14 14 14 17 16 16 11 13 13 10 11 16 15 14 13 10 10 14 16 12 10 13 10 8 6 8 9 5 5 8 10 6 4 5 4 2 1 4
7 3 4 6 8 6 5 5 14 14 12 14 15 15 16 18 22 18 13 14 14 10 13 15 15 13 11 12 16 19 15 10 9 10 6 6 8 8 5 5 9 9 8 4 5 3 2 1 5
8 4 5 6 13 15 9 5 9 9 11 10 13 15 17 21 17 16 19 17 14 14 11 13 13 13 13 13 14 14 14 11 9 9 14 7 6 7 8 3 6 6 4 6 3 4 2 2 2
8 6 7 10 13 14 7 4 10 1 5 7 4 10 15 17 13 18 18 20 16 17 15 14 15 12 12 13 14 13 13 13 10 12 12 8 8 9 11 7 4 4 6 10 8 6 5 4 4
11 15 19 8 10 2 3 5 4 7 4 4 4 4 10 14 19 22 21 21 24 23 18 18 15 16 14 14 14 13 13 13 15 13 10 8 7 5 11 10 5 3 2 5 5 5 6 6 5
12 20 17 7 6 6 10 5 1 5 3 4 4 2 3 11 15 21 21 24 26 20 22 21 18 15 16 16 16 16 15 12 12 11 13 13 4 9 12 10 8 6 6 7 6 6 4 10 7
12 15 14 15 11 9 12 4 5 8 4 6 4 2 2 2 10 15 21 23 24 27 27 29 23 16 16 16 17 16 17 16 15 16 15 10 10 6 9 9 8 9 8 8 8 9 8 8 9
16 6 15 15 6 8 3 5 5 8 5 7 6 4 3 2 3 8 14 19 24 27 29 31 25 19 17 18 17 17 16 18 18 17 15 15 13 14 10 11 8 9 8 9 9 10 9 8 8
8 14 14 14 15 9 6 6 5 5 3 5 8 7 6 4 4 5 9 16 19 27 29 30 30 27 23 20 18 17 15 18 19 19 18 18 16 15 13 12 11 11 10 8 7 6 6 8 8
11 13 14 14 12 17 15 6 4 5 5 8 10 9 8 9 8 12 12 13 16 25 30 31 32 32 28 23 21 20 18 16 17 18 18 17 19 17 15 14 14 12 11 10 10 8 5 12 9
Wind_Direction
105 96 142 182 275 179 91 86 93 92 80 66 95 62 77 69 170 126 137 144 166 169 164 160 155 157 158 157 147 139 151 162 166 168 167 150 126 129 138 130 120 121 118 124 119 117 119 127 130
122 270 203 249 257 71 95 116 70 82 84 104 73 74 76 83 111 132 157 157 157 179 170 166 170 172 171 170 165 137 98 135 180 171 154 135 131 139 132 122 119 117 115 112 110 112 120 123 126
85 61 208 265 293 179 98 89 95 82 66 89 5 76 200 185 215 254 140 161 153 184 175 172 173 173 187 204 216 240 264 273 195 166 150 138 137 128 121 116 115 109 110 103 103 98 93 97 101
240 26 18 231 155 68 104 95 95 79 40 79 110 27 77 234 259 205 158 168 169 196 196 186 189 195 212 225 232 223 242 259 205 165 161 147 135 129 123 118 113 109 104 94 91 79 78 74 79
338 293 282 246 144 112 110 102 70 75 65 61 102 128 193 186 216 155 151 139 159 190 187 190 189 196 203 190 187 221 207 211 130 155 160 140 127 125 119 110 99 94 82 77 69 65 70 78 92
301 301 284 281 267 126 118 104 67 68 69 76 107 85 101 156 172 156 161 161 185 164 191 186 188 187 189 195 208 173 177 178 151 145 138 126 125 125 119 102 91 83 78 74 74 77 80 86 93
297 284 281 230 187 141 130 94 82 77 72 109 119 117 131 171 153 171 178 189 169 205 190 193 185 172 153 177 148 164 177 169 141 134 133 128 124 123 107 95 91 91 86 89 89 82 78 77 74
296 292 278 204 196 124 128 109 91 92 112 115 133 169 146 210 141 198 194 196 194 172 196 190 195 182 154 133 181 172 159 143 140 135 130 124 120 106 94 103 102 101 98 93 90 85 67 49 34
315 265 247 200 183 140 136 130 104 86 91 121 108 140 173 131 188 286 204 208 201 203 200 204 197 171 153 157 136 169 154 152 136 132 127 125 109 103 100 105 101 95 99 98 87 73 59 340 290
323 304 234 199 166 142 134 141 106 80 94 116 121 153 170 133 145 250 240 202 199 196 205 192 187 162 146 148 118 160 148 129 130 131 129 125 134 114 110 103 94 97 99 95 89 87 9 354 351
316 317 187 190 169 142 142 118 98 141 129 147 138 118 129 133 129 260 208 185 195 192 177 175 185 165 147 151 137 147 154 148 143 139 141 125 126 128 121 102 108 108 99 88 67 35 14 4 1
283 121 193 179 154 157 128 126 121 107 128 149 145 138 134 133 116 255 218 193 192 192 195 201 181 179 154 154 151 150 142 135 149 144 141 136 129 130 126 117 115 80 12 94 74 27 8 8 13
14 171 148 169 171 174 152 141 121 113 130 138 135 135 130 124 144 151 231 193 190 192 188 179 195 176 165 164 161 139 176 133 190 160 155 146 140 135 127 124 126 149 96 58 77 40 26 21 27
127 143 146 189 195 178 165 160 167 128 140 140 130 137 132 130 146 151 191 190 187 184 180 186 187 176 170 159 159 155 125 161 152 166 153 139 139 147 129 130 123 144 131 191 103 53 31 28 31
136 112 129 63 177 183 199 259 151 147 153 145 145 146 153 141 121 142 161 185 191 187 183 186 187 172 165 160 157 161 171 170 160 164 165 153 159 154 146 143 118 154 171 172 138 63 31 35 35
168 170 124 155 162 205 212 142 195 160 164 169 164 166 150 154 124 138 153 168 181 183 186 178 180 173 169 163 157 163 158 158 166 179 171 168 168 160 165 171 173 96 190 207 148 71 54 31 29
179 147 126 151 147 153 165 187 195 193 178 191 183 179 165 162 166 128 138 158 179 188 178 184 175 177 173 168 167 169 166 171 173 181 183 177 178 175 181 185 201 176 132 158 125 101 36 41 32
87 112 110 144 171 193 181 201 167 196 185 191 198 192 179 186 174 164 131 165 150 174 177 177 178 170 169 174 181 177 171 179 183 192 193 189 190 193 199 216 206 212 178 189 173 142 46 43 26
70 81 92 92 154 181 207 225 199 200 195 185 195 214 204 203 161 188 165 136 135 147 159 164 162 167 169 174 182 184 186 178 194 201 191 199 209 219 214 238 232 230 221 217 221 201 298 347 18
313 280 80 120 163 210 183 188 199 204 197 209 198 199 214 205 182 201 184 177 157 146 152 154 151 153 160 175 191 174 179 206 190 211 211 200 214 198 220 249 232 227 217 208 201 233 267 327 13
258 302 294 238 228 212 209 229 182 208 195 201 214 212 202 203 199 207 195 196 190 175 174 173 178 179 187 189 190 193 173 184 199 230 213 204 197 190 211 251 232 226 204 273 202 227 240 73 337
263 287 295 242 247 338 219 103 260 175 201 209 212 208 219 217 191 200 212 199 204 203 199 201 200 211 222 203 191 195 205 202 207 198 227 219 201 201 229 257 222 205 176 185 188 181 275 341 289
262 270 260 247 267 234 208 260 173 166 180 197 211 218 216 237 209 214 199 220 211 221 216 207 206 211 218 216 209 197 203 207 215 183 223 223 219 220 220 213 176 193 181 224 228 254 254 297 347
244 239 249 249 260 262 196 245 77 329 118 114 194 214 215 206 239 205 208 222 215 226 222 225 218 214 213 213 207 206 207 207 209 206 234 224 217 221 212 204 175 191 229 230 237 243 234 242 288
226 231 230 225 256 325 200 200 126 179 175 133 139 179 223 214 203 223 206 213 219 206 228 230 222 221 217 219 220 219 219 216 216 224 214 215 212 234 220 216 216 201 133 167 206 256 271 276 287
218 242 274 299 285 101 161 251 232 146 159 186 175 177 179 217 217 211 217 221 226 228 225 239 232 223 224 225 229 231 234 221 212 216 222 199 198 216 233 216 220 225 222 233 247 259 276 284 289
235 229 268 313 289 254 275 143 238 218 234 203 220 206 232 141 207 219 214 223 229 224 226 238 241 227 228 227 227 229 234 230 229 226 235 215 205 210 229 213 221 234 241 250 255 269 270 275 283
237 272 239 221 234 263 226 222 206 166 213 221 225 249 237 245 216 218 232 225 225 238 229 233 242 238 231 230 230 232 228 233 235 236 235 234 225 223 220 231 222 238 245 258 260 267 283 290 279
200 235 250 276 301 319 289 69 97 176 181 218 224 225 235 243 260 261 235 237 229 231 225 230 233 236 223 225 234 238 237 227 232 236 234 238 243 241 234 236 240 239 244 259 259 248 241 285 277
244 270 269 267 225 236 279 347 132 185 222 215 222 237 236 253 269 287 280 275 260 223 230 223 233 228 228 225 232 238 241 238 231 235 238 238 239 238 239 246 247 251 246 266 268 252 235 283 280
Height
3165 3165 3165 3164 3167 3163 3160 3163 3163 3165 3166 3168 3168 3167 3168 3169 3167 3171 3170 3173 3175 3174 3176 3178 3179 3181 3182 3183 3184 3184 3185 3186 3187 3188 3188 3190 3190 3191 3191 3192 3193 3193 3193 3194 3195 3195 3196 3196 3196
3165 3165 3165 3164 3165 3157 3159 3160 3164 3167 3167 3168 3168 3170 3168 3167 3168 3169 3170 3172 3175 3176 3177 3178 3180 3182 3183 3184 3185 3185 3187 3188 3188 3189 3190 3191 3192 3192 3193 3194 3195 3195 3196 3196 3196 3197 3197 3197 3198
3165 3166 3167 3165 3160 3161 3161 3163 3167 3168 3168 3169 3170 3170 3169 3169 3168 3169 3170 3172 3176 3176 3178 3179 3180 3182 3184 3184 3186 3186 3187 3188 3188 3189 3192 3190 3193 3195 3196 3196 3197 3197 3198 3197 3198 3199 3199 3199 3200
3166 3166 3166 3163 3163 3161 3163 3166 3169 3169 3168 3168 3170 3170 3167 3168 3168 3170 3171 3172 3174 3174 3178 3179 3181 3182 3183 3184 3185 3186 3186 3187 3188 3189 3190 3194 3194 3196 3197 3198 3200 3199 3199 3200 3200 3200 3200 3200 3201
3167 3166 3162 3162 3163 3163 3165 3168 3169 3170 3170 3170 3170 3171 3168 3168 3168 3170 3171 3172 3173 3174 3177 3179 3181 3183 3183 3184 3186 3186 3186 3187 3188 3188 3193 3195 3197 3198 3199 3201 3201 3201 3201 3202 3202 3202 3202 3203 3203
3170 3168 3165 3163 3156 3164 3167 3169 3170 3171 3170 3169 3172 3171 3168 3168 3169 3170 3171 3173 3175 3176 3177 3179 3181 3183 3184 3184 3185 3186 3187 3189 3189 3191 3194 3197 3199 3200 3201 3202 3202 3203 3203 3204 3203 3204 3204 3204 3204
3171 3168 3164 3163 3161 3164 3167 3170 3170 3172 3172 3172 3173 3173 3172 3168 3169 3170 3172 3172 3174 3176 3178 3180 3182 3183 3185 3185 3185 3187 3189 3188 3189 3191 3196 3199 3200 3202 3202 3203 3204 3204 3205 3206 3205 3206 3206 3206 3206
3168 3166 3163 3162 3162 3162 3168 3169 3171 3171 3171 3171 3173 3174 3174 3169 3169 3170 3171 3173 3175 3176 3178 3180 3183 3184 3185 3185 3185 3187 3189 3189 3191 3193 3198 3200 3202 3203 3204 3204 3205 3206 3207 3207 3206 3207 3208 3208 3207
3166 3164 3162 3161 3157 3161 3168 3170 3170 3171 3171 3173 3173 3171 3172 3171 3171 3169 3170 3171 3174 3176 3178 3180 3182 3184 3185 3186 3185 3188 3189 3192 3192 3196 3199 3201 3202 3204 3206 3207 3207 3208 3208 3208 3208 3209 3209 3207 3204
3167 3163 3162 3161 3162 3160 3168 3169 3172 3174 3173 3172 3173 3171 3170 3171 3173 3169 3169 3172 3173 3175 3176 3181 3183 3184 3186 3186 3187 3189 3192 3193 3196 3198 3201 3202 3205 3207 3208 3208 3209 3209 3209 3210 3211 3210 3209 3206 3203
3166 3164 3160 3161 3162 3165 3168 3171 3173 3173 3175 3175 3174 3171 3172 3172 3173 3169 3170 3171 3173 3176 3178 3181 3182 3185 3187 3188 3187 3190 3194 3194 3198 3200 3202 3204 3206 3208 3209 3210 3211 3211 3212 3212 3213 3212 3206 3206 3202
3164 3163 3161 3160 3163 3164 3163 3171 3174 3175 3176 3176 3175 3174 3173 3173 3175 3172 3170 3170 3172 3174 3177 3180 3182 3185 3188 3189 3190 3192 3195 3197 3200 3201 3203 3205 3206 3209 3209 3214 3213 3214 3215 3215 3210 3213 3213 3211 3208
3164 3164 3162 3163 3164 3166 3167 3170 3173 3175 3175 3175 3175 3175 3176 3177 3176 3175 3171 3171 3172 3173 3177 3180 3183 3186 3188 3190 3191 3194 3198 3200 3203 3203 3204 3206 3208 3210 3210 3212 3216 3215 3216 3216 3217 3216 3214 3212 3210
3167 3164 3164 3163 3165 3167 3167 3168 3172 3176 3176 3176 3176 3178 3178 3177 3175 3173 3173 3171 3172 3174 3176 3180 3183 3186 3189 3190 3193 3195 3199 3201 3204 3204 3206 3207 3209 3211 3212 3214 3214 3215 3217 3217 3217 3216 3215 3214 3212
3167 3166 3165 3164 3164 3166 3167 3161 3171 3175 3177 3178 3179 3180 3180 3178 3175 3174 3173 3172 3173 3174 3176 3180 3183 3186 3189 3192 3194 3196 3198 3202 3205 3205 3207 3208 3210 3211 3212 3215 3216 3216 3216 3216 3217 3217 3216 3214 3213
3166 3165 3166 3166 3168 3167 3170 3169 3170 3176 3178 3179 3180 3180 3180 3179 3178 3176 3174 3174 3174 3176 3177 3181 3183 3186 3190 3191 3194 3197 3198 3200 3206 3205 3207 3209 3210 3211 3213 3215 3216 3217 3217 3216 3217 3218 3219 3216 3214
3167 3164 3165 3166 3166 3167 3170 3170 3170 3174 3175 3178 3180 3180 3181 3180 3180 3177 3175 3175 3176 3176 3178 3181 3183 3186 3190 3193 3195 3196 3198 3200 3206 3206 3207 3208 3210 3212 3213 3215 3216 3217 3216 3216 3218 3219 3218 3216 3215
3164 3166 3162 3163 3167 3168 3168 3168 3166 3171 3173 3176 3179 3179 3180 3180 3182 3179 3178 3177 3176 3177 3180 3181 3183 3186 3190 3193 3196 3197 3198 3200 3205 3206 3206 3208 3210 3211 3213 3215 3216 3217 3217 3217 3217 3218 3217 3216 3216
3161 3166 3161 3165 3165 3166 3166 3166 3167 3168 3171 3172 3176 3176 3178 3179 3181 3180 3180 3179 3179 3179 3181 3183 3186 3188 3190 3193 3195 3198 3200 3202 3204 3206 3206 3207 3209 3211 3213 3214 3215 3216 3216 3217 3218 3218 3217 3216 3217
3166 3162 3161 3164 3164 3164 3165 3166 3166 3165 3167 3169 3172 3175 3176 3178 3181 3181 3180 3180 3181 3182 3183 3186 3187 3190 3192 3193 3195 3198 3202 3202 3206 3205 3205 3207 3209 3210 3212 3212 3213 3215 3215 3216 3217 3218 3217 3216 3216
3163 3161 3160 3162 3162 3161 3162 3162 3165 3168 3166 3168 3171 3171 3176 3178 3178 3181 3182 3181 3181 3183 3185 3187 3190 3191 3192 3193 3195 3198 3200 3202 3203 3203 3204 3206 3208 3209 3210 3211 3212 3213 3215 3217 3216 3217 3217 3215 3215
3160 3161 3162 3161 3161 3161 3161 3161 3157 3164 3166 3166 3169 3171 3172 3174 3176 3179 3182 3183 3182 3183 3184 3187 3188 3191 3192 3193 3194 3196 3198 3201 3202 3205 3206 3206 3207 3208 3209 3211 3210 3212 3214 3215 3216 3216 3216 3216 3213
3162 3162 3161 3160 3157 3154 3153 3153 3161 3161 3161 3164 3165 3168 3170 3170 3175 3176 3180 3181 3184 3183 3183 3185 3187 3189 3191 3192 3193 3195 3197 3199 3201 3204 3203 3204 3205 3207 3209 3210 3210 3212 3213 3214 3216 3215 3216 3215 3214
3162 3162 3161 3158 3154 3149 3147 3154 3159 3165 3162 3162 3165 3166 3167 3171 3170 3176 3181 3179 3183 3183 3183 3183 3185 3187 3189 3191 3193 3194 3195 3197 3197 3200 3202 3203 3204 3206 3207 3209 3209 3211 3211 3213 3214 3214 3214 3214 3214
3162 3158 3151 3152 3148 3144 3151 3153 3151 3159 3161 3163 3165 3167 3167 3166 3171 3172 3177 3180 3175 3180 3182 3183 3182 3185 3187 3190 3192 3193 3194 3195 3197 3198 3200 3201 3203 3206 3204 3207 3208 3209 3210 3212 3213 3213 3213 3213 3213
3158 3153 3149 3147 3138 3140 3151 3149 3153 3157 3160 3163 3164 3166 3165 3167 3166 3170 3174 3175 3177 3178 3178 3180 3179 3183 3185 3187 3189 3191 3192 3193 3195 3197 3198 3201 3196 3203 3203 3205 3206 3207 3209 3210 3211 3212 3212 3212 3211
3154 3155 3151 3148 3145 3144 3143 3147 3153 3156 3160 3163 3165 3165 3165 3164 3167 3166 3170 3173 3174 3174 3176 3177 3177 3180 3183 3185 3186 3188 3190 3192 3193 3194 3195 3200 3199 3195 3203 3204 3205 3206 3207 3208 3210 3210 3210 3209 3209
3153 3153 3152 3151 3147 3145 3139 3145 3148 3154 3158 3160 3162 3164 3165 3164 3164 3166 3167 3168 3170 3169 3172 3173 3175 3177 3180 3182 3183 3185 3187 3190 3191 3193 3195 3197 3197 3200 3199 3202 3203 3204 3206 3207 3207 3208 3208 3208 3208
3151 3152 3152 3149 3145 3141 3141 3144 3147 3151 3155 3158 3161 3163 3163 3163 3163 3163 3163 3164 3163 3165 3167 3168 3171 3173 3176 3179 3181 3182 3185 3186 3188 3190 3192 3194 3196 3198 3199 3200 3202 3202 3203 3204 3205 3205 3206 3206 3206
3148 3147 3146 3144 3145 3144 3144 3145 3148 3150 3153 3155 3159 3159 3160 3159 3159 3158 3158 3158 3158 3160 3160 3163 3165 3169 3172 3176 3177 3179 3181 3182 3184 3186 3188 3190 3192 3194 3197 3198 3199 3201 3201 3202 3203 3203 3203 3204 3204